TimeCST,TemperatureF,Dew PointF,Humidity,Sea Level PressureIn,VisibilityMPH,Wind Direction,Wind SpeedMPH,Gust SpeedMPH,PrecipitationIn,Events,Conditions,WindDirDegrees,DateUTC
12:52 AM,19.9,19.0,96,29.98,8.0,Calm,Calm,-,N/A,,Clear,0,2012-11-18 06:52:00
1:52 AM,18.0,18.0,100,29.95,9.0,Calm,Calm,-,N/A,,Clear,0,2012-11-18 07:52:00
2:52 AM,19.9,19.9,100,29.94,8.0,Calm,Calm,-,N/A,,Clear,0,2012-11-18 08:52:00
3:52 AM,19.9,19.9,100,29.91,7.0,NE,3.5,-,N/A,,Clear,50,2012-11-18 09:52:00
4:52 AM,18.0,17.1,96,29.90,7.0,NW,4.6,-,N/A,,Clear,310,2012-11-18 10:52:00
5:52 AM,18.0,16.0,92,29.90,7.0,Calm,Calm,-,N/A,,Clear,0,2012-11-18 11:52:00
6:52 AM,18.0,16.0,92,29.89,8.0,NNE,3.5,-,N/A,,Clear,30,2012-11-18 12:52:00
7:52 AM,19.0,18.0,96,29.88,10.0,Calm,Calm,-,N/A,,Clear,0,2012-11-18 13:52:00
8:52 AM,25.0,23.0,92,29.87,10.0,Calm,Calm,-,N/A,,Clear,0,2012-11-18 14:52:00
9:52 AM,34.0,28.0,79,29.86,10.0,Calm,Calm,-,N/A,,Clear,0,2012-11-18 15:52:00
10:52 AM,39.9,30.9,70,29.85,10.0,SE,8.1,-,N/A,,Clear,130,2012-11-18 16:52:00
11:52 AM,42.1,32.0,67,29.83,10.0,SSE,8.1,-,N/A,,Clear,150,2012-11-18 17:52:00
12:52 PM,42.1,33.1,70,29.81,10.0,ESE,3.5,-,N/A,,Clear,120,2012-11-18 18:52:00
1:52 PM,44.1,33.1,65,29.81,10.0,South,6.9,-,N/A,,Clear,170,2012-11-18 19:52:00
2:52 PM,44.1,34.0,68,29.81,10.0,SSW,4.6,-,N/A,,Clear,200,2012-11-18 20:52:00
3:52 PM,42.1,34.0,73,29.83,10.0,SSW,4.6,-,N/A,,Clear,200,2012-11-18 21:52:00
4:52 PM,37.9,33.1,83,29.88,10.0,WSW,3.5,-,N/A,,Scattered Clouds,240,2012-11-18 22:52:00
5:52 PM,35.1,33.1,92,29.90,10.0,Calm,Calm,-,N/A,,Mostly Cloudy,0,2012-11-18 23:52:00
6:52 PM,39.0,33.1,79,29.93,10.0,Calm,Calm,-,N/A,,Scattered Clouds,0,2012-11-19 00:52:00
7:52 PM,37.0,30.9,79,29.94,10.0,West,6.9,-,N/A,,Overcast,280,2012-11-19 01:52:00
8:52 PM,37.9,30.9,76,29.96,10.0,West,10.4,-,N/A,,Overcast,270,2012-11-19 02:52:00
9:52 PM,37.0,30.0,76,29.97,10.0,Calm,Calm,-,N/A,,Overcast,0,2012-11-19 03:52:00
10:52 PM,37.0,30.0,76,29.99,10.0,Variable,3.5,-,N/A,,Mostly Cloudy,0,2012-11-19 04:52:00
11:52 PM,37.0,28.9,73,30.00,10.0,SSE,4.6,-,N/A,,Mostly Cloudy,150,2012-11-19 05:52:00